This is the latest recevied weather packets stored in our database for station/object KD8TSA. If no packets are shown the sender has not sent any weather packets the latest 10 day(s).
| Time | Temp. | Humidity | Pressure | Rain* | Wind** | Luminosity | Snow |
|---|---|---|---|---|---|---|---|
| 1777553862 | 6.67° C | 88% | 1014.3 hPa | 0 mm | - | 81 W/m² | - |
| 1777552644 | 6.11° C | 88% | 1014 hPa | 0 mm | - | 94 W/m² | - |
| 1777550523 | 6.11° C | 88% | 1013.5 hPa | 0 mm | - | 53 W/m² | - |
| 1777550219 | 6.11° C | 89% | 1013.6 hPa | 0 mm | - | 55 W/m² | - |
| 1777549915 | 6.11° C | 89% | 1013.2 hPa | 0 mm | - | 55 W/m² | - |
| 1777549307 | 5.56° C | 89% | 1013 hPa | 0 mm | - | 55 W/m² | - |
| 1777547791 | 5.56° C | 90% | 1012.6 hPa | 0 mm | - | 10 W/m² | - |
| 1777547487 | 5.56° C | 90% | 1012.8 hPa | 0 mm | - | 10 W/m² | - |
| 1777546882 | 5.56° C | 90% | 1012.8 hPa | 0 mm | - | 6 W/m² | - |
| 1777546579 | 5.56° C | 90% | 1012.3 hPa | 0 mm | - | 4 W/m² | - |
| 1777545973 | 5.56° C | 91% | 1012.5 hPa | 0 mm | - | 3 W/m² | - |
| 1777545366 | 5.56° C | 91% | 1012.5 hPa | 0 mm | - | 0 W/m² | - |
| 1777545063 | 5.56° C | 91% | 1012.5 hPa | 0 mm | - | 0 W/m² | - |
| 1777544760 | 5.56° C | 91% | 1012.6 hPa | 0 mm | - | 0 W/m² | - |
| 1777544456 | 5.56° C | 91% | 1012.5 hPa | 0 mm | - | 0 W/m² | - |
| 1777544152 | 5.56° C | 91% | 1012.4 hPa | 0 mm | - | 0 W/m² | - |
| 1777543850 | 5.56° C | 91% | 1012.2 hPa | 0 mm | - | 0 W/m² | - |
| 1777543546 | 5.56° C | 91% | 1012.4 hPa | 0 mm | - | 0 W/m² | - |
| 1777543242 | 5° C | 91% | 1012.3 hPa | 0 mm | - | 0 W/m² | - |
| 1777542330 | 5° C | 90% | 1012.2 hPa | 0 mm | - | 0 W/m² | - |
| 1777542028 | 5° C | 90% | 1012.4 hPa | 0 mm | - | 0 W/m² | - |
| 1777541725 | 5° C | 90% | 1012.3 hPa | 0 mm | - | 0 W/m² | - |
| 1777541422 | 5° C | 89% | 1012.2 hPa | 0 mm | - | 0 W/m² | - |
| 1777541118 | 5° C | 89% | 1012.2 hPa | 0 mm | - | 0 W/m² | - |
| 1777540815 | 5.56° C | 89% | 1012.3 hPa | 0 mm | - | 0 W/m² | - |
* Rain latest hour (hover to see other rain measurements)
** Current wind speed in m/s (hover to see current wind gust speed)